When you browse on this site, cookies collect data to enhance your experience and personalize the content and advertising you see.
Visit our Privacy Policy to learn more. By continuing to use the site, you agree to this use of cookies and data.
  • In Hungary
  • List of Countries
  • For 7 days
  • Water Temperature
  • Satellite Maps
  • Weather Map
  • News
  • Weather Widgets
  • user-avatar
    Login

    Hourly Weather Zapolatovo

    Today, 17 November, Saturday

    Time Temperature Precipitation Wind Pressure Humidity
    00:00 -5°C° 0 mm 3 mps 770 mmHg 29%
    01:00 -5°C° 0 mm 3 mps 770 mmHg 29%
    02:00 -5°C° 0 mm 3 mps 770 mmHg 29%
    03:00 -5°C° 0 mm 2 mps 770 mmHg 29%
    04:00 -5°C° 0 mm 2 mps 770 mmHg 29%
    05:00 -5°C° 0 mm 2 mps 769 mmHg 29%
    06:00 -5°C° 0 mm 2 mps 769 mmHg 28%
    07:00 -5°C° 0 mm 2 mps 769 mmHg 27%
    08:00 -4°C° 0 mm 2 mps 769 mmHg 26%
    09:00 -2°C° 0 mm 1 mps 768 mmHg 25%
    10:00 -1°C° 0 mm 1 mps 768 mmHg 23%
    11:00 +1°C° 0 mm 1 mps 768 mmHg 21%
    12:00 +2°C° 0 mm 1 mps 768 mmHg 19%
    13:00 +2°C° 0 mm 1 mps 767 mmHg 20%
    14:00 +2°C° 0 mm 1 mps 766 mmHg 22%
    15:00 +2°C° 0 mm 1 mps 766 mmHg 23%
    16:00 +1°C° 0 mm 1 mps 766 mmHg 24%
    17:00 0°C° 0 mm 1 mps 765 mmHg 25%
    18:00 -1°C° 0 mm 1 mps 765 mmHg 26%
    19:00 -1°C° 0 mm 1 mps 764 mmHg 25%
    20:00 -1°C° 0 mm 1 mps 764 mmHg 25%
    21:00 -1°C° 0 mm 1 mps 763 mmHg 25%
    22:00 -3°C° 0 mm 2 mps 763 mmHg 25%
    23:00 -4°C° 0 mm 2 mps 762 mmHg 25%

    Tomorrow, 18 November, Sunday

    Time Temperature Precipitation Wind Pressure Humidity
    00:00 -4°C° 0 mm 2 mps 762 mmHg 25%
    01:00 -4°C° 0 mm 2 mps 761 mmHg 25%
    02:00 -5°C° 0 mm 3 mps 761 mmHg 26%
    03:00 -5°C° 0 mm 3 mps 760 mmHg 26%
    04:00 -6°C° 0 mm 3 mps 760 mmHg 27%
    05:00 -6°C° 0 mm 3 mps 759 mmHg 27%
    06:00 -5°C° 0 mm 2 mps 759 mmHg 28%
    07:00 -6°C° 0 mm 3 mps 759 mmHg 28%
    08:00 -5°C° 0 mm 3 mps 758 mmHg 29%
    09:00 -5°C° 0 mm 3 mps 758 mmHg 29%
    10:00 -4°C° 0 mm 3 mps 758 mmHg 28%
    11:00 -1°C° 0 mm 3 mps 758 mmHg 27%
    12:00 0°C° 0 mm 3 mps 758 mmHg 26%
    13:00 0°C° 0 mm 3 mps 758 mmHg 29%
    14:00 +1°C° 0 mm 2 mps 758 mmHg 31%
    15:00 +1°C° 0 mm 2 mps 758 mmHg 33%
    16:00 -1°C° 0 mm 2 mps 758 mmHg 36%
    17:00 -2°C° 0 mm 2 mps 758 mmHg 39%
    18:00 -3°C° 0 mm 2 mps 758 mmHg 42%
    19:00 -3°C° 0 mm 2 mps 758 mmHg 43%
    20:00 -3°C° 0 mm 2 mps 758 mmHg 44%
    21:00 -3°C° 0 mm 2 mps 758 mmHg 45%
    22:00 -3°C° 0 mm 2 mps 758 mmHg 46%
    23:00 -2°C° 0 mm 1 mps 759 mmHg 47%

    Day after tomorrow, 19 November, Monday

    Time Temperature Precipitation Wind Pressure Humidity
    00:00 -2°C° 0 mm 1 mps 759 mmHg 47%
    01:00 -2°C° 0 mm 1 mps 759 mmHg 48%
    02:00 -2°C° 0 mm 1 mps 759 mmHg 48%
    03:00 -2°C° 0 mm 1 mps 759 mmHg 48%
    04:00 -2°C° 0 mm 1 mps 759 mmHg 48%
    05:00 -2°C° 0 mm 1 mps 760 mmHg 48%
    06:00 -2°C° 0 mm 1 mps 760 mmHg 48%
    07:00 -2°C° 0 mm 1 mps 760 mmHg 47%
    08:00 -2°C° 0 mm 1 mps 760 mmHg 45%
    09:00 -2°C° 0 mm 1 mps 761 mmHg 44%
    10:00 0°C° 0 mm 1 mps 761 mmHg 40%
    11:00 +1°C° 0 mm 1 mps 761 mmHg 36%
    12:00 +2°C° 0 mm 1 mps 761 mmHg 33%
    13:00 +2°C° 0 mm 1 mps 762 mmHg 34%
    14:00 +2°C° 0 mm 1 mps 762 mmHg 34%
    15:00 +2°C° 0 mm 1 mps 762 mmHg 35%
    16:00 -1°C° 0 mm 2 mps 762 mmHg 37%
    17:00 -2°C° 0 mm 2 mps 762 mmHg 39%
    18:00 -3°C° 0 mm 2 mps 762 mmHg 40%
    19:00 -3°C° 0 mm 2 mps 762 mmHg 40%
    20:00 -3°C° 0 mm 2 mps 762 mmHg 40%
    21:00 -3°C° 0 mm 2 mps 762 mmHg 40%
    22:00 -3°C° 0 mm 2 mps 762 mmHg 41%
    23:00 -3°C° 0 mm 2 mps 762 mmHg 41%

    20 November, Tuesday

    Time Temperature Precipitation Wind Pressure Humidity
    00:00 -3°C° 0 mm 2 mps 762 mmHg 42%
    01:00 -3°C° 0 mm 2 mps 762 mmHg 43%
    02:00 -3°C° 0 mm 2 mps 762 mmHg 44%
    03:00 -3°C° 0 mm 2 mps 762 mmHg 45%
    04:00 -4°C° 0 mm 3 mps 762 mmHg 44%
    05:00 -4°C° 0 mm 3 mps 761 mmHg 44%
    06:00 -4°C° 0 mm 3 mps 761 mmHg 43%
    07:00 -2°C° 0 mm 3 mps 761 mmHg 41%
    08:00 -2°C° 0 mm 3 mps 761 mmHg 40%
    09:00 -3°C° 0 mm 4 mps 761 mmHg 38%
    10:00 -2°C° 0 mm 4 mps 760 mmHg 37%
    11:00 -2°C° 0 mm 4 mps 760 mmHg 36%
    12:00 -1°C° 0 mm 4 mps 760 mmHg 35%
    13:00 -1°C° 0 mm 4 mps 759 mmHg 35%
    14:00 -1°C° 0 mm 4 mps 759 mmHg 34%
    15:00 -1°C° 0 mm 4 mps 758 mmHg 33%
    16:00 -2°C° 0.1 mm 4 mps 758 mmHg 39%
    17:00 -2°C° 0.1 mm 4 mps 757 mmHg 46%
    18:00 -3°C° 0.1 mm 4 mps 757 mmHg 52%
    19:00 -3°C° 0.5 mm 4 mps 756 mmHg 64%
    20:00 -3°C° 0.5 mm 4 mps 756 mmHg 76%
    21:00 -4°C° 0.5 mm 4 mps 756 mmHg 88%
    22:00 -4°C° 0.3 mm 4 mps 755 mmHg 89%
    23:00 -4°C° 0.3 mm 4 mps 755 mmHg 90%

    21 November, Wednesday

    Time Temperature Precipitation Wind Pressure Humidity
    00:00 -3°C° 0.3 mm 4 mps 754 mmHg 91%
    01:00 -2°C° 0.1 mm 3 mps 754 mmHg 91%
    02:00 -2°C° 0.1 mm 3 mps 753 mmHg 91%
    03:00 -2°C° 0.1 mm 3 mps 753 mmHg 92%
    04:00 -2°C° 0.2 mm 3 mps 753 mmHg 92%
    05:00 -2°C° 0.2 mm 2 mps 752 mmHg 93%
    06:00 -2°C° 0.2 mm 2 mps 752 mmHg 94%
    07:00 -2°C° 0.3 mm 3 mps 752 mmHg 93%
    08:00 -2°C° 0.3 mm 3 mps 752 mmHg 93%
    09:00 -3°C° 0.3 mm 4 mps 752 mmHg 93%
    10:00 -3°C° 0.1 mm 4 mps 752 mmHg 91%
    11:00 -3°C° 0.1 mm 4 mps 752 mmHg 89%
    12:00 -2°C° 0.1 mm 4 mps 752 mmHg 88%
    13:00 -2°C° 0.1 mm 4 mps 752 mmHg 87%
    14:00 -2°C° 0.1 mm 5 mps 752 mmHg 86%
    15:00 -2°C° 0.1 mm 5 mps 752 mmHg 86%
    16:00 -4°C° 0 mm 5 mps 752 mmHg 85%
    17:00 -4°C° 0 mm 5 mps 752 mmHg 85%
    18:00 -5°C° 0 mm 5 mps 753 mmHg 85%
    19:00 -5°C° 0 mm 5 mps 753 mmHg 86%
    20:00 -6°C° 0 mm 5 mps 753 mmHg 87%
    21:00 -5°C° 0 mm 4 mps 753 mmHg 89%
    22:00 -5°C° 0 mm 4 mps 753 mmHg 89%
    23:00 -5°C° 0 mm 4 mps 753 mmHg 90%

    22 November, Thursday

    Time Temperature Precipitation Wind Pressure Humidity
    00:00 -5°C° 0 mm 4 mps 754 mmHg 91%
    01:00 -5°C° 0 mm 4 mps 754 mmHg 91%
    02:00 -7°C° 0 mm 4 mps 754 mmHg 92%
    03:00 -7°C° 0 mm 4 mps 754 mmHg 93%
    04:00 -7°C° 0 mm 4 mps 754 mmHg 93%
    05:00 -7°C° 0 mm 4 mps 754 mmHg 93%
    06:00 -7°C° 0 mm 4 mps 754 mmHg 92%
    07:00 -7°C° 0 mm 4 mps 754 mmHg 90%
    08:00 -5°C° 0 mm 4 mps 754 mmHg 88%
    09:00 -5°C° 0 mm 4 mps 755 mmHg 86%
    10:00 -4°C° 0 mm 4 mps 755 mmHg 82%
    11:00 -5°C° 0 mm 5 mps 755 mmHg 79%
    12:00 -5°C° 0 mm 5 mps 755 mmHg 75%
    13:00 -5°C° 0 mm 5 mps 755 mmHg 76%
    14:00 -4°C° 0 mm 4 mps 754 mmHg 78%
    15:00 -4°C° 0 mm 4 mps 754 mmHg 79%
    16:00 -5°C° 0 mm 4 mps 755 mmHg 82%
    17:00 -6°C° 0 mm 3 mps 755 mmHg 85%
    18:00 -6°C° 0 mm 3 mps 755 mmHg 88%
    19:00 -7°C° 0 mm 3 mps 755 mmHg 89%
    20:00 -8°C° 0 mm 4 mps 755 mmHg 90%
    21:00 -8°C° 0 mm 4 mps 755 mmHg 91%
    22:00 -7°C° 0 mm 4 mps 755 mmHg 90%
    23:00 -7°C° 0 mm 4 mps 755 mmHg 88%
    Show more